Flag for Canada Weather past 2 weeks in Winnipeg, Manitoba, Canada

Now
35 °F

Chilly.


Feels Like: 35 °F
Forecast: 38 / 66 °F
Wind: 2 mph from East

Location: Winnipeg The Forks

Current Time: Apr 18, 2015 at 6:54:55 AM

Latest Report: Apr 18, 2015 at 6:00 AM


Visibility: N/A

Pressure: 30.21 "Hg

Humidity: 74%

Dew point: 28 °F

Location of WinnipegLocation

Historic Weather in Winnipeg — Graph

°F

Winnipeg temperature yesterday

Maximum temperature yesterday: 65 °F (at 11:00 AM)
Minimum temperature yesterday: 42 °F (at 6:00 AM)
Average temperature yesterday: 53 °F

Past Weeks' High & Low Weather Summary

 TemperatureHumidityPressure
High76 °F (Apr 15, 6:00 PM)96% (Apr 8, 7:00 AM)30.35 "Hg (Apr 8, 7:00 AM)
Low11 °F (Apr 5, 7:00 AM)14% (Apr 13, 1:00 PM)29.39 "Hg (Apr 12, 5:00 AM)
Average42 °F47%30.02 "Hg
* Reported Apr 3 6:00 AM — Apr 18 6:00 AM, Winnipeg, Weather by CustomWeather, © 2015

Note: Actual official high and low records may vary slightly from our data, if they occured in-between our weather recording intervals... More about our weather records

Advertising

Winnipeg weather history for previous 24 hours

 ConditionsComfort  
Time TempWeatherWind HumidityBarometerVisibility
6:00 AM
Sat, Apr 18
35 °FChilly.2 mph74%30.21 "HgN/A
5:00 AM37 °FChilly.2 mph73%30.20 "HgN/A
4:00 AM38 °FChilly.1 mph73%30.20 "HgN/A
3:00 AM38 °FChilly.1 mph74%30.22 "HgN/A
2:00 AM39 °FChilly.2 mph70%30.22 "HgN/A
1:00 AM41 °FQuite cool.2 mph65%30.22 "HgN/A
12:00 AM41 °FQuite cool.2 mph63%30.20 "HgN/A
11:00 PM
Fri, Apr 17
43 °FQuite cool.2 mph60%30.19 "HgN/A
10:00 PM45 °FCool.6 mph63%30.17 "HgN/A
9:00 PM48 °FCool.6 mph50%30.16 "HgN/A
8:00 PM50 °FCool.9 mph53%30.15 "HgN/A
7:00 PM54 °FCool.7 mph46%30.14 "HgN/A
6:00 PM57 °FRefreshingly cool.10 mph38%30.13 "HgN/A
5:00 PM59 °FRefreshingly cool.10 mph35%30.10 "HgN/A
4:00 PM62 °FRefreshingly cool.9 mph29%30.07 "HgN/A
3:00 PM62 °FRefreshingly cool.9 mph25%30.06 "HgN/A
2:00 PM62 °FRefreshingly cool.13 mph24%30.04 "HgN/A
1:00 PM63 °FMild.13 mph28%30.02 "HgN/A
12:00 PM62 °FMild.8 mph26%30.01 "HgN/A
11:00 AM65 °FMild.6 mph21%29.98 "HgN/A
10:00 AM61 °FRefreshingly cool.9 mph22%29.96 "HgN/A
9:00 AM54 °FCool.8 mph30%29.99 "HgN/A
8:00 AM46 °FCool.6 mph40%30.03 "HgN/A
7:00 AM43 °FQuite cool.6 mph45%30.04 "HgN/A
6:00 AM42 °FQuite cool.6 mph46%30.04 "HgN/A
Weather by CustomWeather, © 2015

See weather overviewHow to use our weather pages